STARLINK-1124 (44953 NORAD) Tracking and Keplerian Element Data

This shows tracking and keplerian element data for the satellite.

Feedback or suggestion? Click here.




ElementValue
Catalog44953
NameSTARLINK-1124
Epoch Orbit1485
Epoch Day93.91667824
Epoch Year2020
RAAN333.6397
Inclination53.0007
Eccentricity0.0001771
Argument of Perigee76.3429
Mean Anonmoly331.6081
Mean Motion15.05594945
Decay Rate-0.00026244
L11 44953U 20001AR 20093.91667824 -.00026244 00000-0 -17879-2 0 9999
L22 44953 53.0007 333.6397 0001771 76.3429 331.6081 15.05594945 14850

Live tracking and technical data element details for STARLINK-1124 (NORAD 44953). STARLINK-1124 can be tracked NOW for your location showing map with azimuth and elevation plus other details from your city location.

Track the satellite on the map from your city or location and see movement details for azimuth, elevation, latitude, longitude, range, height, and movement on the map or in text.







IsCatalogInMostPopularTable: catalog: 44953, numindb: 21
Update: records affected: 1



GetName: 44953 STARLINK-1124

Hit Count: updated at: Sun, 05 Apr 2020 20:02:34 GMT